Weather History for KTHA - July, 2013

Change the Weather History Date:

Saturday, July 13, 2013

  Actual Average (KBNA) Record (KBNA)
Temperature  
Mean Temperature 70 °F 80 °F  
Max Temperature 84 °F 89 °F 105 °F (1954)
Min Temperature 57 °F 70 °F 57 °F (1975)
Degree Days  
Heating Degree Days 0    
Month to date heating degree days  
Since 1 June heating degree days  
Since 1 July heating degree days  
Cooling Degree Days 6    
Month to date cooling degree days  
Year to date cooling degree days  
Since 1 June cooling degree days  
Growing Degree Days 20 (Base 50)    
Moisture  
Dew Point 63 °F    
Average Humidity 71    
Maximum Humidity 94    
Minimum Humidity 51    
Precipitation  
Precipitation 0.00 in 0.12 in 2.20 in (1988)
Month to date precipitation 1.60  
Year to date precipitation 27.04  
Snow  
Snow 0.00 in 0.00 in - ()
Month to date snowfall 0.0  
Since 1 June snowfall 0.0  
Since 1 July snowfall 0.0  
Snow Depth -    
Sea Level Pressure  
Sea Level Pressure 30.04 in    
Wind  
Wind Speed 3 mph (SE)    
Max Wind Speed 7 mph    
Max Gust Speed -    
Visibility 10 miles    
Events      
T = Trace of Precipitation, MM = Missing Value Source: NWS Daily Summary

Daily Weather History Graph

Daily Weather History Graph

Search for Another Location

Airport or City:

Trip Planner

Search our weather history database for the weather conditions in past years. The results will help you decide how hot, cold, wet, or windy it might be!

Date:

Astronomy

Jul. 13, 2013 Rise Set
Actual Time 5:40 AM CDT 8:01 PM CDT
Civil Twilight 5:11 AM CDT 8:30 PM CDT
Nautical Twilight 4:35 AM CDT 9:06 PM CDT
Astronomical Twilight 3:55 AM CDT 9:45 PM CDT
Moon 10:42 AM CDT (7/13) 10:55 PM CDT (7/13)
Length of Visible Light 15h 19m
Length of Day
14h 20m
Waxing Crescent, 26% of the Moon is Illuminated
Jul 13
Waxing Crescent
Jul 15
First Quarter
Jul 22
Full
Jul 29
Last Quarter
Aug 6
New

Hourly Weather History & Observations

Time (CDT) Temp. Heat Index Dew Point Humidity Pressure Visibility Wind Dir Wind Speed Gust Speed Precip Events Conditions
12:15 AM 66.2 °F - 57.2 °F 73% 30.03 in 10.0 mi NE 3.5 mph - N/A   Clear
12:35 AM 66.2 °F - 59.0 °F 78% 30.02 in 10.0 mi NE 3.5 mph - N/A   Clear
12:55 AM 66.2 °F - 59.0 °F 78% 30.02 in 10.0 mi NE 4.6 mph - N/A   Clear
1:15 AM 66.2 °F - 57.2 °F 73% 30.02 in 10.0 mi NE 3.5 mph - N/A   Clear
1:35 AM 66.2 °F - 57.2 °F 73% 30.01 in 10.0 mi NE 4.6 mph - N/A   Clear
1:55 AM 66.2 °F - 57.2 °F 73% 30.01 in 10.0 mi Calm Calm - N/A   Clear
2:15 AM 64.4 °F - 57.2 °F 77% 30.01 in 10.0 mi Calm Calm - N/A   Clear
2:35 AM 62.6 °F - 57.2 °F 82% 30.01 in 10.0 mi Calm Calm - N/A   Clear
2:55 AM 62.6 °F - 57.2 °F 82% 30.01 in 10.0 mi Calm Calm - N/A   Clear
3:15 AM 62.6 °F - 57.2 °F 82% 30.01 in 10.0 mi Calm Calm - N/A   Clear
3:35 AM 62.6 °F - 57.2 °F 82% 30.01 in 10.0 mi Calm Calm - N/A   Clear
3:55 AM 60.8 °F - 55.4 °F 82% 30.00 in 10.0 mi Calm Calm - N/A   Clear
4:15 AM 59.0 °F - 55.4 °F 88% 30.00 in 10.0 mi Calm Calm - N/A   Clear
4:35 AM 57.2 °F - 55.4 °F 94% 30.00 in 10.0 mi Calm Calm - N/A   Clear
4:55 AM 57.2 °F - 55.4 °F 94% 30.01 in 10.0 mi Calm Calm - N/A   Clear
5:15 AM 60.8 °F - 57.2 °F 88% 30.01 in 10.0 mi Calm Calm - N/A   Clear
5:35 AM 60.8 °F - 57.2 °F 88% 30.02 in 10.0 mi Calm Calm - N/A   Clear
5:55 AM 60.8 °F - 57.2 °F 88% 30.03 in 10.0 mi Calm Calm - N/A   Clear
6:15 AM 60.8 °F - 57.2 °F 88% 30.03 in 10.0 mi Calm Calm - N/A   Clear
6:35 AM 62.6 °F - 59.0 °F 88% 30.04 in 10.0 mi Calm Calm - N/A   Clear
6:55 AM 62.6 °F - 59.0 °F 88% 30.04 in 10.0 mi Calm Calm - N/A   Clear
7:15 AM 64.4 °F - 59.0 °F 83% 30.04 in 10.0 mi Calm Calm - N/A   Clear
7:35 AM 66.2 °F - 60.8 °F 83% 30.04 in 10.0 mi ENE 3.5 mph - N/A   Clear
7:55 AM 66.2 °F - 60.8 °F 83% 30.05 in 10.0 mi ENE 4.6 mph - N/A   Clear
8:15 AM 66.2 °F - 60.8 °F 83% 30.05 in 10.0 mi NE 3.5 mph - N/A   Clear
8:35 AM 69.8 °F - 62.6 °F 78% 30.05 in 10.0 mi ENE 3.5 mph - N/A   Clear
8:55 AM 71.6 °F - 62.6 °F 73% 30.05 in 10.0 mi Calm Calm - N/A   Clear
9:15 AM 71.6 °F - 62.6 °F 73% 30.05 in 10.0 mi Calm Calm - N/A   Clear
9:35 AM 73.4 °F - 62.6 °F 69% 30.04 in 10.0 mi East 4.6 mph - N/A   Clear
9:55 AM 75.2 °F - 64.4 °F 69% 30.05 in 10.0 mi Calm Calm - N/A   Clear
10:15 AM 75.2 °F - 64.4 °F 69% 30.05 in 10.0 mi South 6.9 mph - N/A   Clear
10:35 AM 77.0 °F - 64.4 °F 65% 30.06 in 10.0 mi SE 3.5 mph - N/A   Partly Cloudy
10:55 AM 78.8 °F - 64.4 °F 61% 30.06 in 10.0 mi SE 4.6 mph - N/A   Partly Cloudy
11:15 AM 77.0 °F - 64.4 °F 65% 30.06 in 10.0 mi Calm Calm - N/A   Scattered Clouds
11:35 AM 78.8 °F - 64.4 °F 61% 30.06 in 10.0 mi South 3.5 mph - N/A   Scattered Clouds
11:55 AM 80.6 °F 82.3 °F 64.4 °F 58% 30.06 in 10.0 mi Calm Calm - N/A   Partly Cloudy
12:15 PM 80.6 °F 82.3 °F 64.4 °F 58% 30.07 in 10.0 mi SSE 5.8 mph - N/A   Partly Cloudy
12:35 PM 80.6 °F 81.8 °F 62.6 °F 54% 30.06 in 10.0 mi SE 3.5 mph - N/A   Mostly Cloudy
12:55 PM 82.4 °F 83.4 °F 62.6 °F 51% 30.06 in 10.0 mi Variable 6.9 mph - N/A   Partly Cloudy
1:15 PM 82.4 °F 83.9 °F 64.4 °F 54% 30.05 in 10.0 mi SSW 5.8 mph - N/A   Scattered Clouds
1:35 PM 80.6 °F 82.3 °F 64.4 °F 58% 30.04 in 10.0 mi SSW 6.9 mph - N/A   Scattered Clouds
1:55 PM 82.4 °F 83.9 °F 64.4 °F 54% 30.04 in 10.0 mi South 4.6 mph - N/A   Clear
2:15 PM 82.4 °F 84.6 °F 66.2 °F 58% 30.03 in 10.0 mi South 6.9 mph - N/A   Partly Cloudy
2:35 PM 82.4 °F 83.9 °F 64.4 °F 54% 30.02 in 10.0 mi South 4.6 mph - N/A   Partly Cloudy
2:55 PM 84.2 °F 85.6 °F 64.4 °F 51% 30.02 in 10.0 mi SE 5.8 mph - N/A   Scattered Clouds
3:15 PM 84.2 °F 86.6 °F 66.2 °F 55% 30.02 in 10.0 mi SSE 6.9 mph - N/A   Partly Cloudy
3:35 PM 82.4 °F 84.6 °F 66.2 °F 58% 30.02 in 10.0 mi South 6.9 mph - N/A   Scattered Clouds
3:55 PM 82.4 °F 84.6 °F 66.2 °F 58% 30.02 in 10.0 mi South 5.8 mph - N/A   Scattered Clouds
4:15 PM 82.4 °F 84.6 °F 66.2 °F 58% 30.01 in 10.0 mi SSE 4.6 mph - N/A   Partly Cloudy
4:35 PM 82.4 °F 84.6 °F 66.2 °F 58% 30.01 in 10.0 mi SE 6.9 mph - N/A   Scattered Clouds
4:55 PM 82.4 °F 84.6 °F 66.2 °F 58% 30.01 in 10.0 mi South 6.9 mph - N/A   Partly Cloudy
5:15 PM 82.4 °F 84.6 °F 66.2 °F 58% 30.02 in 10.0 mi SSE 6.9 mph - N/A   Partly Cloudy
5:35 PM 82.4 °F 84.6 °F 66.2 °F 58% 30.02 in 10.0 mi South 5.8 mph - N/A   Clear
5:55 PM 82.4 °F 84.6 °F 66.2 °F 58% 30.02 in 10.0 mi SSE 4.6 mph - N/A   Partly Cloudy
6:15 PM 80.6 °F 82.7 °F 66.2 °F 61% 30.02 in 10.0 mi South 3.5 mph - N/A   Partly Cloudy
6:35 PM 80.6 °F 82.7 °F 66.2 °F 61% 30.03 in 10.0 mi SE 5.8 mph - N/A   Clear
6:55 PM 80.6 °F 83.2 °F 68.0 °F 65% 30.03 in 10.0 mi SSE 3.5 mph - N/A   Clear
7:15 PM 78.8 °F - 66.2 °F 65% 30.04 in 10.0 mi SSE 4.6 mph - N/A   Clear
7:35 PM 78.8 °F - 68.0 °F 69% 30.05 in 10.0 mi SSE 3.5 mph - N/A   Clear
7:55 PM 78.8 °F - 66.2 °F 65% 30.05 in 10.0 mi SE 4.6 mph - N/A   Partly Cloudy
8:15 PM 78.8 °F - 66.2 °F 65% 30.06 in 10.0 mi ESE 6.9 mph - N/A   Partly Cloudy
8:35 PM 77.0 °F - 66.2 °F 69% 30.07 in 10.0 mi ESE 5.8 mph - N/A   Clear
8:55 PM 77.0 °F - 68.0 °F 74% 30.07 in 10.0 mi ESE 3.5 mph - N/A   Clear
9:15 PM 75.2 °F - 66.2 °F 73% 30.08 in 10.0 mi ESE 5.8 mph - N/A   Clear
9:35 PM 75.2 °F - 66.2 °F 73% 30.09 in 10.0 mi SE 4.6 mph - N/A   Clear
9:55 PM 75.2 °F - 66.2 °F 73% 30.09 in 10.0 mi ESE 5.8 mph - N/A   Clear
10:15 PM 75.2 °F - 66.2 °F 73% 30.09 in 10.0 mi ESE 4.6 mph - N/A   Clear
10:35 PM 75.2 °F - 66.2 °F 73% 30.09 in 10.0 mi SE 4.6 mph - N/A   Clear
10:55 PM 73.4 °F - 66.2 °F 78% 30.09 in 10.0 mi SSE 5.8 mph - N/A   Clear
11:15 PM 73.4 °F - 66.2 °F 78% 30.09 in 10.0 mi SE 5.8 mph - N/A   Clear
11:35 PM 73.4 °F - 66.2 °F 78% 30.10 in 10.0 mi SSE 3.5 mph - N/A   Clear
11:55 PM 71.6 °F - 66.2 °F 83% 30.10 in 10.0 mi SE 3.5 mph - N/A   Clear